Fairbanks Ft. Wainwright, AK

7:07 AM AKST on February 20, 2018 (GMT -0900)
Ladd Army Air Field

Weather History for PAFB - November, 2012

Change the Weather History Date:

Thursday, November 8, 2012

  Actual Average Record
Temperature  
Mean Temperature -14 °F -  
Max Temperature -2 °F 14 °F 33 °F (2007)
Min Temperature -25 °F 3 °F -25 °F (2012)
Degree Days  
Heating Degree Days 78    
Moisture  
Dew Point -20 °F    
Average Humidity 76    
Maximum Humidity 100    
Minimum Humidity 69    
Precipitation  
Precipitation 0.00 in - - ()
Snow  
Snow 0.00 in - - ()
Snow Depth 6.00 in    
Sea Level Pressure  
Sea Level Pressure 30.41 in    
Wind  
Wind Speed 0 mph (ENE)    
Max Wind Speed 4 mph    
Max Gust Speed -    
Visibility 8 miles    
Events      
Averages and records for this station are not official NWS values.
T = Trace of Precipitation, MM = Missing Value Source: NWS Daily Summary

Daily Weather History Graph

Daily Weather History Graph

Search for Another Location

Airport or City:

Trip Planner

Search our weather history database for the weather conditions in past years. The results will help you decide how hot, cold, wet, or windy it might be!

Date:

Astronomy

Nov. 08, 2012 Rise Set
Actual Time 9:04 AM AKST 4:03 PM AKST
Civil Twilight 8:05 AM AKST 5:02 PM AKST
Nautical Twilight 7:04 AM AKST 6:02 PM AKST
Astronomical Twilight 6:07 AM AKST 6:59 PM AKST
Moon 1:03 AM AKST (11/8) 2:41 PM AKST (11/8)
Length of Visible Light 8h 56m
Length of Day
6h 59m
Waning Crescent, 31% of the Moon is Illuminated
Nov 8
Waning Crescent
Nov 13
New
Nov 20
First Quarter
Nov 28
Full
Dec 6
Last Quarter

Hourly Weather History & Observations

Time (AKST) Temp. Windchill Dew Point Humidity Pressure Visibility Wind Dir Wind Speed Gust Speed Precip Events Conditions
12:03 AM -23.8 °F - -29.2 °F 76% 30.52 in 6.2 mi Calm Calm - N/A   Scattered Clouds
12:56 AM -23.1 °F - -27.9 °F 78% 30.58 in 10.0 mi Calm Calm - N/A   Clear
1:56 AM -23.1 °F - -27.9 °F 78% 30.58 in 9.0 mi Calm Calm - N/A   Clear
2:56 AM -23.1 °F - -29.0 °F 74% 30.57 in 10.0 mi Calm Calm - N/A   Clear
3:56 AM -23.1 °F -34.2 °F -29.9 °F 70% 30.55 in 10.0 mi ENE 3.5 mph - N/A   Clear
4:56 AM -23.1 °F - -29.0 °F 74% 30.54 in 10.0 mi Calm Calm - N/A   Clear
6:30 AM -23.8 °F -35.0 °F -23.8 °F 100% 30.46 in 7.0 mi Variable 3.5 mph - N/A   Scattered Clouds
6:55 AM -25.6 °F - -29.2 °F 83% 30.52 in 7.0 mi Calm Calm - N/A   Scattered Clouds
7:55 AM -22.0 °F - -29.2 °F 69% 30.50 in 7.0 mi Calm Calm - N/A   Scattered Clouds
8:55 AM -22.0 °F - -27.4 °F 76% 30.49 in 7.0 mi Calm Calm - N/A   Scattered Clouds
9:55 AM -22.0 °F - -27.4 °F 76% 30.47 in 7.0 mi Calm Calm - N/A   Partly Cloudy
10:55 AM -18.4 °F - -23.8 °F 76% 30.40 in 7.0 mi Calm Calm - N/A   Partly Cloudy
11:55 AM -11.2 °F - -18.4 °F 70% 30.43 in 25.0 mi Calm Calm - N/A   Partly Cloudy
12:55 PM -9.4 °F - -14.8 °F 77% 30.43 in 25.0 mi Calm Calm - N/A   Partly Cloudy
1:55 PM -4.0 °F - -11.2 °F 71% 30.40 in 25.0 mi Calm Calm - N/A   Partly Cloudy
2:55 PM -2.2 °F - -9.4 °F 71% 30.36 in 25.0 mi Calm Calm - N/A   Mostly Cloudy
3:55 PM -7.6 °F - -11.2 °F 84% 30.33 in 25.0 mi Calm Calm - N/A   Mostly Cloudy
4:55 PM -9.4 °F - -14.8 °F 77% 30.32 in 13.0 mi Calm Calm - N/A   Mostly Cloudy
5:55 PM -9.4 °F - -16.6 °F 71% 30.30 in 7.0 mi Calm Calm - N/A   Mostly Cloudy
6:55 PM -11.2 °F -20.6 °F -16.6 °F 77% 30.27 in 7.0 mi NE 3.5 mph - N/A   Mostly Cloudy
7:55 PM -11.2 °F - -16.6 °F 77% 30.27 in 7.0 mi Calm Calm - N/A   Mostly Cloudy
8:55 PM -9.4 °F -18.6 °F -16.6 °F 71% 30.25 in 7.0 mi East 3.5 mph - N/A   Mostly Cloudy
9:56 PM -7.1 °F - -11.9 °F 79% 30.25 in 10.0 mi Calm Calm - N/A   Clear
10:56 PM -2.9 °F - -9.0 °F 75% 30.23 in 10.0 mi Calm Calm - N/A   Clear
11:56 PM -2.0 °F - -7.1 °F 79% 30.22 in 10.0 mi Calm Calm - N/A   Partly Cloudy